{"data":{"norad_id":67823,"intl_designator":"2026-033C","name":"STARLINK-36646","alt_names":[],"object_type":"PAYLOAD","status":"ACTIVE","operator":null,"country":"US","launch_date":"2026-02-16","launch_site_code":"AFETR","launch_vehicle":null,"mission":null,"orbit_class":"UNKNOWN","rcs_meters":null,"size_class":null,"mass_kg":null,"dimensions":null,"purposes":["comms"],"wikipedia_slug":null,"has_3d_model":false,"image_url":null,"decayed_at":null,"tle_current":{"epoch":"2026-09-19T08:41:57.907392Z","epoch_age_seconds":164805,"freshness":"FRESH","line1":"1 67823U 26033C   26262.36247578  .00009914  00000+0  36917-3 0  9991","line2":"2 67823  43.0045 253.3092 0002140 276.3321  83.7287 15.27593304 34291","mean_motion":15.27593304,"eccentricity":0.000214,"inclination_deg":43.0045,"raan_deg":253.3092,"arg_perigee_deg":276.3321,"mean_anomaly_deg":83.7287,"bstar":0.00036917,"rev_number":3429,"period_min":94.265927732818,"perigee_km":481.54097406718,"apogee_km":484.47754466619,"semimajor_km":6861.1462593667,"source":"CELESTRAK","updated_at":"2026-09-20T09:00:43.667307Z"}}}